Hamilton Island Airport, Australia

10:06 PM AEST on August 26, 2016 (GMT +1000)
Hamilton Island

Weather History for YBHM - December, 2012

Change the Weather History Date:

Saturday, December 8, 2012

  Actual Average Record
Temperature  
Mean Temperature 81 °F -  
Max Temperature 84 °F - - ()
Min Temperature 77 °F - - ()
Cooling Degree Days 16    
Growing Degree Days 31 (Base 50)    
Moisture  
Dew Point 67 °F    
Average Humidity 63    
Maximum Humidity 74    
Minimum Humidity 42    
Precipitation  
Precipitation 0.00 in - - ()
Sea Level Pressure  
Sea Level Pressure 30.00 in    
Wind  
Wind Speed 19 mph ()    
Max Wind Speed 25 mph    
Max Gust Speed -    
T = Trace of Precipitation, MM = Missing Value Source: Averaged Metar Reports

Daily Weather History Graph

Daily Weather History Graph

Search for Another Location

Airport or City:

Trip Planner

Search our weather history database for the weather conditions in past years. The results will help you decide how hot, cold, wet, or windy it might be!

Date:

Astronomy

Dec. 08, 2012 Rise Set
Actual Time 5:16 AM AEST 6:35 PM AEST
Civil Twilight 4:51 AM AEST 7:00 PM AEST
Nautical Twilight 4:22 AM AEST 7:29 PM AEST
Astronomical Twilight 3:52 AM AEST 7:59 PM AEST
Moon 12:38 AM AEST (12/8) 1:14 PM AEST (12/8)
Length of Visible Light 14h 08m
Length of Day
13h 19m
Waning Crescent, 35% of the Moon is Illuminated
Dec 8
Waning Crescent
Dec 13
New
Dec 20
First Quarter
Dec 28
Full
Jan 5
Last Quarter

Hourly Weather History & Observations

Time (AEST) Temp. Heat Index Dew Point Humidity Pressure Visibility Wind Dir Wind Speed Gust Speed Precip Events Conditions
12:00 AM 78 °F - 69 °F 68% 30.05 in - East 21.9 mph - -  
12:00 AM 78.8 °F - 69.8 °F 74% 30.04 in - East 21.9 mph - N/A   Unknown
12:30 AM 78.8 °F - 69.8 °F 74% 30.04 in - East 23.0 mph - N/A   Unknown
1:00 AM 78.8 °F - 68.0 °F 69% 30.04 in - East 21.9 mph - N/A   Unknown
1:30 AM 78.8 °F - 68.0 °F 69% 30.01 in - East 21.9 mph - N/A   Unknown
2:00 AM 78.8 °F - 68.0 °F 69% 30.01 in - East 20.7 mph - N/A   Unknown
2:30 AM 78.8 °F - 68.0 °F 69% 30.01 in - East 19.6 mph - N/A   Unknown
3:00 AM 78 °F - 70 °F 69% 30.01 in - East 19.6 mph - -  
3:00 AM 78.8 °F - 69.8 °F 74% 30.01 in - East 19.6 mph - N/A   Unknown
3:30 AM 78.8 °F - 68.0 °F 69% 30.01 in - East 18.4 mph - N/A   Unknown
4:00 AM 78.8 °F - 66.2 °F 65% 30.01 in - East 16.1 mph - N/A   Unknown
4:30 AM 78.8 °F - 64.4 °F 61% 30.01 in - East 18.4 mph - N/A   Unknown
5:00 AM 78.8 °F - 66.2 °F 65% 30.01 in - East 17.3 mph - N/A   Unknown
5:30 AM 78.8 °F - 66.2 °F 65% 30.01 in - East 18.4 mph - N/A   Unknown
6:00 AM 79 °F - 68 °F 61% 30.03 in - East 16.1 mph - -  
6:00 AM 78.8 °F - 68.0 °F 69% 30.04 in - East 16.1 mph - N/A   Unknown
6:30 AM 78.8 °F - 68.0 °F 69% 30.04 in - East 17.3 mph - N/A   Unknown
7:00 AM 80.6 °F 82.3 °F 64.4 °F 58% 30.04 in - East 18.4 mph - N/A   Unknown
7:30 AM 80.6 °F 82.3 °F 64.4 °F 58% 30.04 in - East 19.6 mph - N/A   Unknown
8:00 AM 80.6 °F 82.3 °F 64.4 °F 58% 30.04 in - East 17.3 mph - N/A   Unknown
8:30 AM 82.4 °F 85.4 °F 68.0 °F 62% 30.06 in - East 17.3 mph - N/A   Unknown
9:00 AM 83 °F - 66 °F 47% 30.06 in - ESE 18.4 mph - -  
9:00 AM 82.4 °F 84.6 °F 66.2 °F 58% 30.06 in - ESE 18.4 mph - N/A   Unknown
9:30 AM 82.4 °F 85.4 °F 68.0 °F 62% 30.06 in - East 17.3 mph - N/A   Unknown
10:00 AM 82.4 °F 84.6 °F 66.2 °F 58% 30.04 in - East 19.6 mph - N/A   Unknown
10:30 AM 82.4 °F 85.4 °F 68.0 °F 62% 30.04 in - East 18.4 mph - N/A   Unknown
11:00 AM 82.4 °F 84.6 °F 66.2 °F 58% 30.04 in - East 19.6 mph - N/A   Unknown
11:30 AM 84.2 °F 87.3 °F 68.0 °F 58% 30.04 in - East 18.4 mph - N/A   Unknown
12:00 PM 82.4 °F 84.6 °F 66.2 °F 58% 30.01 in - East 19.6 mph - N/A   Unknown
12:30 PM 84.2 °F 86.6 °F 66.2 °F 55% 30.01 in - East 17.3 mph - N/A   Unknown
1:00 PM 82.4 °F 84.6 °F 66.2 °F 58% 30.01 in - East 18.4 mph - N/A   Unknown
2:00 PM 82.4 °F 85.4 °F 68.0 °F 62% 29.98 in - East 18.4 mph - N/A   Unknown
2:30 PM 82.4 °F 84.6 °F 66.2 °F 58% 29.98 in - ESE 18.4 mph - N/A   Unknown
3:00 PM 82 °F - 67 °F 52% 29.96 in - ESE 19.6 mph - -  
3:00 PM 82.4 °F 85.4 °F 68.0 °F 62% 29.95 in - ESE 19.6 mph - N/A   Unknown
3:30 PM 80.6 °F 82.7 °F 66.2 °F 61% 29.95 in - East 20.7 mph - N/A   Unknown
4:00 PM 80.6 °F 83.2 °F 68.0 °F 65% 29.95 in - ESE 19.6 mph - N/A   Unknown
4:30 PM 80.6 °F 83.2 °F 68.0 °F 65% 29.95 in - ESE 21.9 mph - N/A   Unknown
5:00 PM 80.6 °F 83.2 °F 68.0 °F 65% 29.95 in - ESE 20.7 mph - N/A   Unknown
5:30 PM 78.8 °F - 68.0 °F 69% 29.95 in - ESE 19.6 mph - N/A   Unknown
6:00 PM 79 °F - 66 °F 56% 29.96 in - ESE 19.6 mph - -  
6:00 PM 78.8 °F - 66.2 °F 65% 29.95 in - ESE 19.6 mph - N/A   Unknown
6:30 PM 78.8 °F - 53.6 °F 42% 29.98 in - East 23.0 mph - N/A   Unknown
7:00 PM 78.8 °F - 66.2 °F 65% 29.98 in - ESE 21.9 mph - N/A   Unknown
7:30 PM 78.8 °F - 66.2 °F 65% 29.98 in - ESE 21.9 mph - N/A   Unknown
8:00 PM 78.8 °F - 66.2 °F 65% 29.98 in - ESE 21.9 mph - N/A   Unknown
8:30 PM 78.8 °F - 62.6 °F 57% 29.98 in - ESE 23.0 mph - N/A   Unknown
9:00 PM 78.8 °F - 64.4 °F 61% 29.98 in - ESE 23.0 mph - N/A   Unknown
9:30 PM 78.8 °F - 62.6 °F 57% 29.98 in - ESE 23.0 mph - N/A   Unknown
10:00 PM 78.8 °F - 66.2 °F 65% 29.98 in - ESE 25.3 mph - N/A   Unknown
10:30 PM 78.8 °F - 64.4 °F 61% 29.98 in - ESE 23.0 mph - N/A   Unknown
11:00 PM 78.8 °F - 64.4 °F 61% 29.98 in - ESE 24.2 mph - N/A   Unknown
11:30 PM 77.0 °F - 66.2 °F 69% 29.98 in - ESE 23.0 mph - N/A   Unknown